Location: Carbonear
(47.7333°N, 53.2500°W)
Time: 11:47:57
(UTC+00:00)

XW-2D - Pass Details

Date: 09 December 2022
Orbit: 488 x 502 km, 97.5° (Epoch: 06 February)

Event Time Altitude Azimuth Distance (km) Brightness Sun altitude
Rises 07:50:29 0° 61° (ENE) 2,572 ? -32.4°
Reaches altitude 10° 09:23:38 10° 28° (NNE) 1,690 ? -17.0°
Maximum altitude 09:27:03 38° 98° (E) 761 ? -16.4°
Drops below altitude 10° 09:30:27 10° 168° (SSE) 1,681 ? -15.9°
Sets 09:32:36 0° 177° (S) 2,561 ? -15.5°
